Regional Weather Roundup
Issued by NWS

Home | Current Version | Previous Version | Text Only | Print | Product List | Glossary On
Versions: 1 2 3 4 5 6 7 8 9 10 11 12 13 14 15 16 17 18 19 20 21 22 23 24 25 26 27 28 29 30 31 32 33 34 35 36 37 38 39 40 41 42 43 44 45 46 47 48 49 50
000
ASUS43 KOAX 240310
RWRNE

WEATHER ROUNDUP FOR NEBRASKA
NATIONAL WEATHER SERVICE OMAHA NE
1000 PM CDT THU MAR 23 2017

NOTES: SATELLITE DATA IS BEING USED TO AUGMENT CLOUD COVER ABOVE
       12000 FEET.
       "FAIR" INDICATES FEW OR NO CLOUDS BELOW 12,000 FEET WITH NO
       SIGNIFICANT WEATHER AND/OR OBSTRUCTIONS TO VISIBILITY.

  * THESE STATIONS DO NOT REPORT WEATHER SUCH AS RAIN...SNOW OR FOG.

NEZ001>004-019>022-054>056-240400-
NEBRASKA PANHANDLE

CITY           SKY/WX    TMP DP  RH WIND       PRES   REMARKS
SCOTTSBLUFF    LGT RAIN  46  41  82 N25G32    29.79R
ALLIANCE       CLOUDY    45  42  89 N23G33    29.76R
CHADRON        CLOUDY    44  41  89 N18G31    29.82S
KIMBALL        TSTM      47  46  98 N21G29    29.78R
SIDNEY         LGT RAIN  50  42  74 N31G41    29.69R
$$

NEZ057>060-069>072-079>082-240400-
SOUTHWEST NEBRASKA

CITY           SKY/WX    TMP DP  RH WIND       PRES   REMARKS
NORTH PLATTE   TSTM      60  57  89 VRB7      29.63R FOG
IMPERIAL       PTCLDY    65  43  44 E12       29.49S
LEXINGTON      CLOUDY    76  35  22 S30G43    29.48F HAZE
MCCOOK         CLOUDY    67  46  47 S26G37    29.54R
OGALLALA       PTCLDY    58  43  55 NE25G31   29.60R
$$

NEZ005>010-023>029-035>040-094-240400-
NORTH CENTRAL NEBRASKA

CITY           SKY/WX    TMP DP  RH WIND       PRES   REMARKS
VALENTINE      CLOUDY    53  43  68 N17G30    29.74R
AINSWORTH      CLOUDY    53  50  91 N9        29.68R
BROKEN BOW     TSTM      57  31  37 MISG      29.58F
O`NEILL        CLOUDY    54  54  99 NE12      29.70R
ORD            TSTM      54  51  90 NW21G36   29.66R FOG
THEDFORD       CLOUDY    58  43  56 N22G31    29.67R
$$

NEZ041-046>049-061>064-073>077-083>087-240400-
SOUTH CENTRAL NEBRASKA

CITY           SKY/WX    TMP DP  RH WIND       PRES   REMARKS
GRAND ISLAND   CLOUDY    71  54  54 S33G45    29.52F
AURORA         CLOUDY    70  52  52 S25G33    29.54S
HASTINGS       CLOUDY    73  50  44 S26G39    29.59R
HEBRON         CLOUDY    71  52  51 SE21G26   29.64F
HOLDREGE       TSTM      60  52  73 SW31G54   29.73R
KEARNEY *      CLOUDY    72  50  46 S39G67    29.56R
YORK           CLOUDY    70  54  56 S26G35    29.54F
$$

NEZ011>018-030>034-042>045-240400-
NORTHEAST NEBRASKA

CITY           SKY/WX    TMP DP  RH WIND       PRES   REMARKS
NORFOLK        CLOUDY    59  50  72 SE10      29.60S
ALBION         CLOUDY    62  54  73 S3        29.63R
BLAIR          CLOUDY    72  51  48 SE32G41   29.59F
FREMONT        CLOUDY    68  51  54 E7        29.62S
TEKAMAH        CLOUDY    60  49  66 NW8       29.65R
WAYNE          CLOUDY    60  50  70 SE10      29.62F
$$

NEZ050>053-065>068-078-088>093-240400-
SOUTHEAST NEBRASKA

CITY           SKY/WX    TMP DP  RH WIND       PRES   REMARKS
LINCOLN        LGT RAIN  71  51  49 SE36G46   29.58F
OMAHA EPPLEY   CLOUDY    73  50  44 S26G33    29.65R
BEATRICE       MOCLDY    70  51  49 S14G20    29.67S
FALLS CITY     CLOUDY    71  47  42 S18G28    29.71R
NEBRASKA CITY  CLOUDY    70  40  33 S21G30    29.71R
PLATTSMOUTH    MOCLDY    72  44  36 S22G31    29.69R
$$

NEZ044-045-051>053-067-240400-
OMAHA AREA

CITY           SKY/WX    TMP DP  RH WIND       PRES   REMARKS
OMAHA EPPLEY   CLOUDY    73  50  44 S26G33    29.65R
BLAIR          CLOUDY    72  51  48 SE32G41   29.59F
FREMONT        CLOUDY    68  51  54 E7        29.62S
MILLARD        CLOUDY    74  53  48 SE15G25   29.64S
OFFUTT AFB     CLOUDY    72  50  44 SE18      29.65F
PLATTSMOUTH    MOCLDY    72  44  36 S22G31    29.69R
WAHOO          FAIR      70  49  47 S28G39    29.59F
$$



USA.gov is the U.S. government's official web portal to all federal, state and local government web resources and services.